This demonstration page uses our WeatherBlox Daily Observations layout. Learn more.

Left ArrowRight Arrow

Hourly Observations for March 8, 2020

Temp ( °F °C ) Dew Point ( °F °C ) Humidity (%) Winds ( mph kmh ) Pressure ( in mb ) Visibility ( mi km ) Precip ( " mm )
12:09 am 00:09 Cloudy with Light Snow 20 -6.7 17 -8.3 89 89 NW 17 28 30.02 1017 5 8 0.00 0.00
12:21 am 00:21 Cloudy 20 -6.7 17 -8.3 89 89 NW 15 24 30.02 1017 7 11 0.00 0.00
12:50 am 00:50 Cloudy with Light Snow 19 -7 16 -9 86 86 NW 14 22 30.04 1017 4 6 0.00 0.00
12:53 am 00:53 Cloudy with Light Snow 20 -6.7 16 -8.9 85 85 NW 14 22 29.96 1015 4 6 0.00 0.00
1:53 am 01:53 Cloudy with Haze 19 -7.2 14 -10 81 81 NW 13 20 29.99 1016 6 10 0.02 0.51
3:53 am 03:53 Cloudy 18 -7.8 12 -11.1 77 77 WNW 13 20 30.03 1017 10 16 N/A
4:53 am 04:53 Cloudy 17 -8.3 11 -11.7 77 77 W 14 22 30.06 1018 10 16 N/A
5:53 am 05:53 Cloudy 16 -8.9 10 -12.2 77 77 WNW 13 20 30.06 1018 10 16 N/A
6:23 am 06:23 Cloudy 15 -9.4 9 -12.8 77 77 WNW 9 15 30.18 1022 10 16 N/A
6:53 am 06:53 Partly Cloudy 14 -10 7 -13.9 73 73 WNW 12 19 30.10 1019 10 16 N/A
7:33 am 07:33 Mostly Cloudy 10 -12.2 4 -15.6 76 76 W 9 15 30.26 1025 10 16 N/A
7:53 am 07:53 Cloudy 12 -11.1 6 -14.4 77 77 W 7 11 30.14 1021 10 16 N/A
8:02 am 08:02 Cloudy 12 -11.1 6 -14.4 77 77 WNW 7 11 30.23 1024 10 16 N/A
8:10 am 08:10 Cloudy 12 -11.1 5 -15 73 73 W 6 9 30.24 1024 10 16 N/A
8:53 am 08:53 Mostly Cloudy 10 -12.2 3 -16.1 73 73 W 9 15 30.16 1021 10 16 N/A
9:53 am 09:53 Partly Cloudy 12 -11.1 5 -15 73 73 WSW 7 11 30.17 1022 10 16 N/A
10:53 am 10:53 Sunny 15 -9.4 6 -14.4 67 67 WNW 5 7 30.17 1022 10 16 N/A
11:53 am 11:53 Sunny 16 -8.9 7 -13.9 67 67 VRB 5 7 30.17 1022 10 16 N/A
12:53 pm 12:53 Sunny 17 -8.3 7 -13.9 64 64 WSW 3 6 30.18 1022 10 16 N/A
1:53 pm 13:53 Sunny 18 -7.8 9 -12.8 68 68 SW 3 6 30.14 1021 10 16 N/A
2:53 pm 14:53 Sunny 21 -6.1 11 -11.7 65 65 N N/A 30.11 1020 10 16 N/A
3:53 pm 15:53 Sunny 23 -5 12 -11.1 63 63 N N/A 30.09 1019 10 16 N/A
4:53 pm 16:53 Sunny 22 -5.6 12 -11.1 66 66 SE 3 6 30.09 1019 10 16 N/A
5:53 pm 17:53 Sunny 23 -5 13 -10.6 65 65 E 8 13 30.07 1018 10 16 N/A
6:53 pm 18:53 Sunny 21 -6.1 13 -10.6 71 71 ENE 8 13 30.07 1018 10 16 N/A
7:53 pm 19:53 Clear 22 -5.6 14 -10 71 71 ENE 13 20 30.06 1018 10 16 N/A
8:53 pm 20:53 Clear 21 -6.1 14 -10 74 74 E 10 17 30.05 1018 10 16 N/A
9:53 pm 21:53 Cloudy 22 -5.6 16 -8.9 78 78 NE 5 7 30.06 1018 10 16 N/A
10:53 pm 22:53 Mostly Cloudy 21 -6.1 16 -8.9 81 81 NNE 5 7 30.09 1019 10 16 N/A
11:53 pm 23:53 Clear 15 -9.4 12 -11.1 88 88 N N/A 30.11 1020 10 16 N/A

Powered by AerisWeather